Regional Weather Roundup
Issued by NWS Sioux Falls, SD

Home | Current Version | Previous Version | Text Only | Print | Product List | Glossary On
Versions: 1 2 3 4 5 6 7 8 9 10 11 12 13 14 15 16 17 18 19 20 21 22 23 24 25 26 27 28 29 30 31 32 33 34 35 36 37 38 39 40 41 42 43 44 45 46 47 48 49 50
000
ASUS43 KFSD 251402
RWRFSD

WEATHER ROUNDUP FOR SE SOUTH DAKOTA/SW MINNESOTA/NW IOWA
NATIONAL WEATHER SERVICE SIOUX FALLS SD
900 AM CDT WED MAY 25 2016

NOTE: "FAIR" INDICATES FEW OR NO CLOUDS BELOW 12,000 FEET WITH NO
SIGNIFICANT WEATHER AND OR OBSTRUCTIONS TO VISIBILITY.


SDZ038>040-050-052>070-251500-
SOUTHEAST SOUTH DAKOTA

CITY           SKY/WX    TMP DP  RH WIND       PRES   REMARKS
CHAMBERLAIN    NOT AVBL
HURON          CLOUDY    61  58  90 NW7       29.74S
MADISON        PTSUNNY   63  63 100 S16       29.78F
MITCHELL       PTSUNNY   65  61  87 W10       29.77R
SIOUX FALLS    CLOUDY    63  59  87 S7        29.79F
WINNER         CLOUDY    62  56  80 W9        29.81S
YANKTON        CLOUDY    64  57  77 SW6       29.78R
$$

MNZ071-072-080-081-089-090-097-098-251500-
SOUTHWEST MINNESOTA

CITY           SKY/WX    TMP DP  RH WIND       PRES   REMARKS
FAIRMONT       CLOUDY    64  57  77 S10       29.88F
JACKSON        CLOUDY    66  61  82 CALM      29.87F
LUVERNE        CLOUDY    64  61  88 S9        29.83F
MARSHALL       CLOUDY    64  63  94 SE10      29.81S
MONTEVIDEO     CLOUDY    64  63  94 S15       29.80F
PIPESTONE      CLOUDY    64  63  94 S13G18    29.81S
REDWOOD FALLS  LGT RAIN  63  60  90 E10       29.84F
WINDOM         CLOUDY    66  63  88 SE9       29.85F
$$

IAZ001>003-012>014-020>022-031-032-NEZ013-014-SDZ071-251500-
NORTHWEST IOWA

CITY           SKY/WX    TMP DP  RH WIND       PRES   REMARKS
DENISON        CLOUDY    64  63  94 SE9       29.87F
ESTHERVILLE    PTSUNNY   64  63  96 S6        29.86F
SIOUX CITY     CLOUDY    68  60  75 SE9       29.84F
SPENCER        LGT RAIN  66  61  84 S5        29.88R
STORM LAKE     CLOUDY    64  61  88 S9        29.89R
$$

ABBREVIATIONS USED IN REMARKS
   TC - TEMPERATURE IN CELSIUS
  WCI - WIND CHILL INDEX
   HX - HEAT INDEX
  VSB - VISIBILITY





USA.gov is the U.S. government's official web portal to all federal, state and local government web resources and services.